Location: G�yn�k
(36.6721°N, 30.5542°E)
Time: 19:39:25
(UTC+00:00)

ADEOS II - Visible Passes

Search period start: 25 September 2020 00:00
Search period end: 05 October 2020 00:00
Orbit: 799 x 802 km, 98.5° (Epoch: 25 September)

Date Brightness Start Highest point End Pass type
(mag) Time Alt. Az. Time Alt. Az. Time Alt. Az.
25 Sep 4.5 00:36:31 10° N 00:37:24 15° N 00:37:24 15° N visible
26 Sep 4.8 00:09:54 10° NNE 00:10:24 13° NNE 00:10:24 13° NNE visible
27 Sep 4.4 01:23:59 10° NNW 01:24:19 11° NNW 01:24:19 11° NNW visible
28 Sep 4.5 00:56:45 10° N 00:57:19 13° N 00:57:19 13° N visible
29 Sep 4.7 00:29:54 10° N 00:30:19 12° N 00:30:19 12° N visible
01 Oct 4.6 01:17:12 10° NNW 01:17:14 10° NNW 01:17:14 10° NNW visible
02 Oct 4.7 00:50:05 10° N 00:50:14 11° N 00:50:14 11° N visible
